TimeEST,TemperatureF,Dew PointF,Humidity,Sea Level PressureIn,VisibilityMPH,Wind Direction,Wind SpeedMPH,Gust SpeedMPH,PrecipitationIn,Events,Conditions,WindDirDegrees,DateUTC
12:54 AM,24.1,10.0,55,30.49,10.0,NW,9.2,-,N/A,,Clear,320,2014-01-04 05:54:00
1:54 AM,21.9,12.0,66,30.50,10.0,NW,6.9,-,N/A,,Clear,320,2014-01-04 06:54:00
2:54 AM,19.9,12.0,71,30.52,10.0,WNW,6.9,-,N/A,,Clear,290,2014-01-04 07:54:00
3:54 AM,24.1,15.1,69,30.51,10.0,NNW,9.2,-,N/A,,Clear,340,2014-01-04 08:54:00
4:54 AM,24.1,15.1,69,30.51,10.0,North,6.9,-,N/A,,Clear,350,2014-01-04 09:54:00
5:54 AM,19.9,14.0,78,30.53,10.0,West,5.8,-,N/A,,Clear,270,2014-01-04 10:54:00
6:54 AM,19.9,14.0,78,30.54,10.0,WNW,5.8,-,N/A,,Clear,300,2014-01-04 11:54:00
7:54 AM,26.1,17.1,69,30.55,10.0,NNW,9.2,-,N/A,,Clear,330,2014-01-04 12:54:00
8:54 AM,28.9,18.0,64,30.55,10.0,North,9.2,-,N/A,,Clear,10,2014-01-04 13:54:00
9:54 AM,33.1,21.0,61,30.54,10.0,North,5.8,-,N/A,,Clear,10,2014-01-04 14:54:00
10:54 AM,34.0,23.0,64,30.52,10.0,ENE,5.8,-,N/A,,Mostly Cloudy,60,2014-01-04 15:54:00
11:54 AM,37.0,23.0,57,30.49,10.0,Calm,Calm,-,N/A,,Overcast,0,2014-01-04 16:54:00
12:54 PM,39.9,19.9,45,30.46,10.0,Variable,5.8,-,N/A,,Mostly Cloudy,0,2014-01-04 17:54:00
1:54 PM,39.0,24.1,55,30.44,10.0,ESE,5.8,-,N/A,,Overcast,110,2014-01-04 18:54:00
2:54 PM,41.0,24.1,51,30.43,10.0,Calm,Calm,-,N/A,,Partly Cloudy,0,2014-01-04 19:54:00
3:54 PM,41.0,21.0,45,30.43,10.0,ESE,5.8,-,N/A,,Clear,120,2014-01-04 20:54:00
4:54 PM,37.9,21.9,53,30.43,10.0,Calm,Calm,-,N/A,,Clear,0,2014-01-04 21:54:00
5:54 PM,37.0,27.0,67,30.41,10.0,ESE,6.9,-,N/A,,Overcast,110,2014-01-04 22:54:00
6:54 PM,37.9,30.9,76,30.42,10.0,ESE,3.5,-,N/A,,Overcast,120,2014-01-04 23:54:00
7:54 PM,36.0,32.0,86,30.39,10.0,East,5.8,-,N/A,,Mostly Cloudy,100,2014-01-05 00:54:00
8:54 PM,35.1,32.0,89,30.38,10.0,Calm,Calm,-,N/A,,Mostly Cloudy,0,2014-01-05 01:54:00
9:54 PM,37.9,34.0,86,30.36,10.0,Calm,Calm,-,N/A,,Mostly Cloudy,0,2014-01-05 02:54:00
10:54 PM,37.9,34.0,86,30.32,10.0,East,4.6,-,N/A,,Overcast,80,2014-01-05 03:54:00
11:54 PM,39.0,35.1,86,30.29,10.0,ESE,3.5,-,N/A,,Overcast,110,2014-01-05 04:54:00